Location: Arbon
(43.0005°N, 0.7472°E)
Time: 15:41:51
(UTC+00:00)

Envisat - Pass Details

Date: 29 October 2020
Orbit: 764 x 766 km, 98.1° (Epoch: 30 November)

Event Time Altitude Azimuth Distance (km) Brightness Sun altitude
Rises 18:41:48 0° 223° (SW) 3,222 6.9 -20.5°
Reaches altitude 10° 18:46:29 10° 263° (W) 2,304 6.6 -21.3°
Maximum altitude 18:47:23 10° 273° (W) 2,275 6.6 -21.5°
Drops below altitude 10° 18:48:18 10° 283° (WNW) 2,307 6.6 -21.7°
Sets 18:53:01 0° 324° (NW) 3,241 6.8 -22.5°
